Regional Weather Roundup
Issued by NWS

Home | Current Version | Previous Version | Text Only | Print | Product List | Glossary Off
Versions: 1 2 3 4 5 6 7 8 9 10 11 12 13 14 15 16 17 18 19 20 21 22 23 24 25 26 27 28 29 30 31 32 33 34 35 36 37 38 39 40 41 42 43 44 45 46 47 48 49 50

000
ASUS45 KCYS 211510
RWRWY

WYOMING REGIONAL WEATHER ROUNDUP
NATIONAL WEATHER SERVICE CHEYENNE WY
800 AM MST SUN DEC 21 2014

NOTE:  "FAIR" INDICATES FEW OR NO CLOUDS BELOW 12,000 FEET
WITH NO SIGNIFICANT WEATHER AND/OR OBSTRUCTIONS TO VISIBILITY.

WYZ001-211600-
YELLOWSTONE NATIONAL PARK

CITY           SKY/WX    TMP DP  RH WIND       PRES   REMARKS
LK YELLOWSTONE   N/A     27  24  89 VRB7G17   29.61F WCI  19
W YELLOWSTONE  NOT AVBL

$$
WYZ002>013-054>058-071-098>099-211600-
NORTHERN WYOMING

CITY           SKY/WX    TMP DP  RH WIND       PRES   REMARKS
JACKSON        CLOUDY    34  32  93 SW8       29.69F BLWGSNOWWCI  27
CODY           CLOUDY    39  30  70 NE6       29.52R WCI  35
GREYBULL       MOCLDY    18  16  92 MISG      29.55F
WORLAND        FAIR      20  16  84 S8        29.55F WCI  10
SHERIDAN       CLOUDY    27  22  81 N3        29.46F
BUFFALO        CLOUDY    36  21  54 VRB5      29.45F WCI  32
GILLETTE       FAIR      36  26  67 SW20      29.45F WCI  25
HULETT           N/A    N/A N/A N/A MISG        N/A
NEWCASTLE      FAIR      28  23  80 E8        29.53F WCI  20

$$
WYZ014>020-022>026-101>103-211600-
CENTRAL WYOMING

CITY           SKY/WX    TMP DP  RH WIND       PRES   REMARKS
BIG PINEY      LGT SNOW  28  27  96 SW6       29.76S FOG     WCI  22
PINEDALE       LGT SNOW  28  28 100 E6        29.76F WCI  22
DUBOIS         NOT AVBL
LANDER         CLOUDY    23  17  78 NE3       29.59S
RIVERTON       CLOUDY    23  17  78 CALM      29.60F
CASPER         FAIR      36  28  73 SW30G40   29.56F WCI  23
DOUGLAS        FAIR      42  27  55 W23G32    29.53F

$$
WYZ021-027>030-104>119-211600-
SOUTHERN WYOMING

CITY           SKY/WX    TMP DP  RH WIND       PRES   REMARKS
EVANSTON       LGT SNOW  32  31  96 SW26G33   29.87F VSB 1   WCI  18
KEMMERER       LGT SNOW  32  32 100 SW23G31   29.82F VSB 3/4 WCI  19
FORT BRIDGER   FLURRIES  34  33  95 W29G40    29.87R WCI  21
ROCK SPRINGS   CLOUDY    30  28  92 SW21      29.81R WCI  17
DIXON          MIX PCPN  32  28  86 SW24G30   29.86S WCI  19
RAWLINS        CLOUDY    31  26  82 SW39G47   29.70F WCI  14
SARATOGA       CLOUDY    32  27  80 S15G22    29.77F WCI  22
LARAMIE        CLOUDY    30  21  69 SW18      29.69F WCI  18
CHEYENNE       FAIR      40  18  41 SW18G30   29.65F WCI  31
TORRINGTON     FAIR     N/A N/A N/A W18G26    29.58F
PINE BLUFFS    FAIR      27  21  80 S9        29.66F WCI  17

$$



USA.gov is the U.S. government's official web portal to all federal, state and local government web resources and services.